sat.trackr.live / text

‹ back to catalog

STARLINK-4286

NORAD 52990 · 2022-076E

PAYLOAD ACTIVE UNKNOWN

§ Identity

Operator
Country
US
Launch date
2022-07-07
Launch site
AFETR
Launch vehicle
Mass (kg)
RCS (m²)

Purposes: comms

External: N2YO · Heavens-Above · Gunter

§ Orbital elements

Epoch: 2026-09-19T19:45:19.470528Z

Period
93.79 min
Inclination
53.1612°
Eccentricity
0.0000958
Mean motion
15.35394378 rev/d
Perigee alt
459.1 km
Apogee alt
460.4 km
Semi-major
6,837.9 km
B*
-4.2720e-5
RAAN
297.2017°
Arg perigee
96.6646°
Mean anomaly
263.4466°
Rev number
23,222

§ Raw data

STARLINK-42861 52990U 22076E   26262.82314202 -.00001870  00000+0 -42720-4 0  99982 52990  53.1612 297.2017 0000958  96.6646 263.4466 15.35394378232222

JSON: /api/v1/satellites/52990 · /tle

For live sub-satellite position, see the globe view (requires WebGL).

§ Visibility from observer

Set your observer location to see the next 7 days of passes ≥ 10°. The values pass through the URL so the page stays shareable.

No JS? Fill the form by hand. The geolocation button needs JavaScript.